Regional Weather Roundup
Issued by NWS Upton, NY

Current Version | Previous Version | Graphics & Text | Print | Product List | Glossary Off
Versions: 1 2 3 4 5 6 7 8 9 10 11 12 13 14 15 16 17 18 19 20 21 22 23 24 25 26 27 28 29 30 31 32 33 34 35 36 37 38 39 40 41 42 43 44 45 46 47 48 49 50

273
ASUS41 KOKX 121604
RWROKX

REGIONAL WEATHER ROUNDUP
NATIONAL WEATHER SERVICE NEW YORK NY
1100 AM EST FRI FEB 12 2016

NOTE: "FAIR" INDICATES FEW OR NO CLOUDS BELOW 12,000 FEET WITH NO
SIGNIFICANT WEATHER AND/OR OBSTRUCTIONS TO VISIBILITY.

NYZ071-072-176-178-NJZ106-104-121700-
NEW YORK CITY METRO AREA


CITY           SKY/WX    TMP DP  RH WIND       PRES   REMARKS
CENTRAL PARK   SUNNY     22  -3  33 VRB7      30.23F WCI  13
LAGUARDIA APRT PTSUNNY   23  -1  35 VRB3      30.22F
KENNEDY INTL   MOSUNNY   23   0  36 SW6       30.24F WCI  16
NEWARK/LIBERTY PTSUNNY   24   0  35 SW6       30.23F WCI  17
BRNX BOT. GARD   N/A     25   0  33 NW9       30.23S WCI  15
TETERBORO      SUNNY     23  -1  35 NW6       30.22F WCI  16
$$

NYZ177-179-078>081-121700-
LONG ISLAND NEW YORK

CITY           SKY/WX    TMP DP  RH WIND       PRES   REMARKS
FARMINGDALE    SUNNY     23   2  40 CALM      30.23F
ISLIP          MOSUNNY   23  -1  35 NW5       30.21F WCI  17
SHIRLEY        SUNNY     22   3  44 N3        30.23F
RIVERHEAD        N/A     30  -2  24 W6        30.20F WCI  24
WESTHAMPTON    SUNNY     20   3  48 W5        30.23F WCI  13
EAST HAMPTON   FAIR      21   5  50 W7        30.21F WCI  12
MONTAUK POINT    N/A     23   7  50 VRB7      30.23F WCI  15
$$

NYZ052-065-067-121700-
HUDSON VALLEY

CITY           SKY/WX    TMP DP  RH WIND       PRES   REMARKS
WHITE PLAINS   SUNNY     20   1  43 NW5       30.17F WCI  13
NEWBURGH       PTSUNNY   19   5  53 W12       30.18F WCI   7
MONTGOMERY     MOSUNNY   21   1  41 W6        30.15F WCI  13
POUGHKEEPSIE   SUNNY     22   2  42 SW5       30.19F WCI  16
ALBANY         CLOUDY    17   3  54 S10       30.13F WCI   5
$$

NJZ001-105-106-008-010-013-015-019>022-104-121700-
NEW JERSEY

CITY           SKY/WX    TMP DP  RH WIND       PRES   REMARKS
NEWARK/LIBERTY PTSUNNY   24   0  35 SW6       30.23F WCI  17
TETERBORO      SUNNY     23  -1  35 NW6       30.22F WCI  16
CALDWELL       SUNNY     22  -2  35 VRB5      30.21F WCI  16
MORRISTOWN     PTSUNNY   21   3  45 W5        30.22F WCI  15
SOMERVILLE     SUNNY     23   2  40 VRB3      30.22F
SUSSEX         SUNNY     22   1  40 W7        30.15F WCI  13
ANDOVER          N/A     20   2  45 VRB6      30.17F WCI  12
TRENTON        SUNNY     21   1  41 W3        30.23F
MILLVILLE      SUNNY     24   2  38 W7        30.27F WCI  16
ATLANTIC CITY  SUNNY     24  -1  33 SW3       30.26F
WRIGHTSTOWN    PTSUNNY   25   0  33 VRB6      30.22F WCI  18
TOMS RIVER     SUNNY     23   0  36 NW5       30.25F WCI  17
BELMAR         SUNNY     25   1  36 W6        30.23S WCI  18
$$

PAZ047>061-062-071-121700-
EASTERN PENNSYLVANIA

CITY           SKY/WX    TMP DP  RH WIND       PRES   REMARKS
PHILADELPHIA   PTSUNNY   22  -1  36 W5        30.27F WCI  16
ALLENTOWN      MOSUNNY   20   4  50 SW12      30.21F WCI   8
SCRANTON       MOSUNNY   16   3  56 SW13      30.12F WCI   2
$$

CTZ002-004>006-009-010-012-RIZ004-006-007-MAZ004-011-015-121700-
SOUTHERN NEW ENGLAND
 IN CT

CITY           SKY/WX    TMP DP  RH WIND       PRES   REMARKS
BRADLEY INTL   CLOUDY    18   2  49 SE7       30.17F WCI   9
HARTFORD       SUNNY     20   3  48 CALM      30.21F
DANBURY        MOSUNNY   19   0  43 W8        30.18F WCI   9
WTRBRY/OXFORD  PTSUNNY   18  -2  41 W7        30.16F WCI   8
BRIDGEPORT     SUNNY     23   4  44 SW8       30.22F WCI  14
MERIDEN        SUNNY     20   0  41 VRB3      30.20F
NEW HAVEN      MOSUNNY   21   3  45 SW5       30.21F WCI  15
CHESTER        FAIR      21   1  42 W3        30.18F
GROTON         SUNNY     21   4  47 W9        30.21F WCI  11
WILLIMANTIC    SUNNY     19   1  45 W8        30.19F WCI   9

 IN RI

CITY           SKY/WX    TMP DP  RH WIND       PRES   REMARKS
PROVIDENCE     MOSUNNY   18   0  45 NW12      30.19F WCI   5
BLOCK ISLAND   MOSUNNY   23   5  46 NW8G16    30.19F WCI  14
WESTERLY       SUNNY     21   1  41 MISG      30.21F

 IN MA

CITY           SKY/WX    TMP DP  RH WIND       PRES   REMARKS
BOSTON         MOSUNNY   17  -1  45 SW13      30.18S WCI   4
WORCESTER      SUNNY     12  -1  56 W16       30.08S WCI  -5
WESTFIELD      CLOUDY    17   1  49 S7        30.16F WCI   8
PROVINCETOWN   SUNNY     17   4  56 W10       30.18F WCI   5
NANTUCKET      SUNNY     20   4  50 W17G23    30.20F WCI   5
$$

ANZ330-335-338-340-345-350-353-355-121700-
COASTAL MARINE OBSERVATIONS


STATION/POSITION TIME  SKY/WX   TEMP    WIND        PRES    VSBY  WAVE
                                AIR SEA DIR/SP/G                  HT/PER
                 (UTC)          (F)     (DEG/KT/KT) (MB)    (MI)  (FT/S)
NY HARB ENTRANCE 1450            21 42  300/  8/ 12 1024.3          1/ 9
4S FIRE IS       NOT AVBL
20S FIRE ISLAND  1450            21 42  320/  6/ 10 1024.5          3/ 4
GREAT SOUTH BAY  NOT AVBL
23SW MTP         1550            21 45  300/  6/  8 1023.3          3/ 6
HUDSON CANYON    1450            25 48              1024.1          5/ 6
KINGS POINT      1500            19 35  310/  7/ 10 1023.8
EXECUTION ROCKS  NOT AVBL
CENTRAL LI SOUND 1515            21     280/ 10/ 14   N/A           2/ 4
EASTERN LI SOUND 1500            21 40  280/ 12/ 19   N/A
ROBBINS REEF     1500            19     300/  5/  7 1023.4
$$


>>>>>>>>>>>>>>>>>>>>>>>>>>>> KEY <<<<<<<<<<<<<<<<<<<<<<<<<<<
>                                                          <
>     SKY/WX - SKY CONDITION/PRESENT WEATHER               <
>     TMP    - TEMPERATURE IN FAHRENHEIT                   <
>     DP     - DEWPOINT IN FAHRENHEIT                      <
>     RH     - RELATIVE HUMIDITY IN PERCENT                <
>     WIND   - DIRECTION AND SPEED IN MPH                  <
>     PRES   - MEAN SEA LEVEL PRESSURE IN INCHES OF HG     <
>     WCI    - WIND CHILL INDEX                            <
>     VSB    - VISIBILITY IN MILES                         <
>     HX     - HEAT INDEX                                  <
>     TC     - TEMPERATURE IN CELSIUS                      <
>     VRB    - VARIABLE WIND DIRECTION                     <
>                                                          <
>>>>>>>>>>>>>>>>>>>>>>>>>>>> KEY <<<<<<<<<<<<<<<<<<<<<<<<<<<






USA.gov is the U.S. government's official web portal to all federal, state and local government web resources and services.